Location: Scarborough
(43.7500°N, 79.2000°W)
Time: 23:10:34
(UTC-04:00)

Tiangong 2 - Visible Passes

Search period start: 15 July 2018 00:00
Search period end: 25 July 2018 00:00
Orbit: 386 x 394 km, 42.8° (Epoch: 15 July)

Date Brightness Start Highest point End Pass type
(mag) Time Alt. Az. Time Alt. Az. Time Alt. Az.
15 Jul 3.8 00:09:57 10° W 00:10:25 14° W 00:10:25 14° W visible
15 Jul 1.2 21:35:33 10° WSW 21:38:40 54° SSE 21:41:48 10° E visible
15 Jul 1.0 23:12:17 10° W 23:15:21 73° SSW 23:15:21 73° SSW visible
16 Jul 1.0 22:14:37 10° W 22:17:48 76° S 22:20:10 16° E visible
16 Jul 3.3 23:51:28 10° W 23:52:30 18° W 23:52:30 18° W visible
17 Jul 1.0 22:53:47 10° W 22:56:56 62° S 22:57:16 57° SSE visible
18 Jul 1.0 21:56:06 10° W 21:59:16 73° S 22:01:59 13° E visible
18 Jul 3.2 23:33:03 10° W 23:34:18 19° WSW 23:34:18 19° WSW visible
19 Jul 1.5 22:35:17 10° W 22:38:21 45° SSW 22:39:00 38° SSE visible
20 Jul 1.2 21:37:33 10° W 21:40:43 60° SSW 21:43:42 11° ESE visible
20 Jul 3.3 23:14:47 10° WSW 23:16:01 17° WSW 23:16:01 17° WSW visible
21 Jul 2.2 22:16:50 10° W 22:19:41 30° SSW 22:20:44 24° SSE visible
22 Jul 1.7 21:19:01 10° W 21:22:05 43° SSW 21:25:07 10° SE visible
22 Jul 3.7 22:57:07 10° WSW 22:57:47 11° SW 22:57:47 11° SW visible
23 Jul 3.0 21:58:35 10° WSW 22:00:56 19° SSW 22:02:33 14° S visible
